Weather History for KDVT - February, 2014

Change the Weather History Date:

Sunday, February 2, 2014

  Actual Average Record
Temperature  
Mean Temperature 48 °F -  
Max Temperature 59 °F 64 °F 73 °F (2009)
Min Temperature 37 °F 44 °F 30 °F (2011)
Degree Days  
Heating Degree Days 17    
Moisture  
Dew Point 23 °F    
Average Humidity 37    
Maximum Humidity 60    
Minimum Humidity 20    
Precipitation  
Precipitation 0.00 in - - ()
Sea Level Pressure  
Sea Level Pressure 29.99 in    
Wind  
Wind Speed 2 mph (SSE)    
Max Wind Speed 9 mph    
Max Gust Speed -    
Visibility 10 miles    
Events      
Averages and records for this station are not official NWS values.
T = Trace of Precipitation, MM = Missing Value Source: NWS Daily Summary

Daily Weather History Graph

Daily Weather History Graph

Search for Another Location

Airport or City:

Trip Planner

Search our weather history database for the weather conditions in past years. The results will help you decide how hot, cold, wet, or windy it might be!

Date:

Astronomy

Feb. 02, 2014 Rise Set
Actual Time 7:23 AM MST 6:00 PM MST
Civil Twilight 6:57 AM MST 6:26 PM MST
Nautical Twilight 6:28 AM MST 6:56 PM MST
Astronomical Twilight 5:58 AM MST 7:25 PM MST
Moon 9:04 AM MST (2/2) 9:35 PM MST (2/2)
Length of Visible Light 11h 28m
Length of Day
10h 36m
Waxing Crescent, 12% of the Moon is Illuminated
Feb 2
Waxing Crescent
Feb 6
First Quarter
Feb 14
Full
Feb 22
Last Quarter
Mar 1
New

Hourly Weather History & Observations

Time (MST) Temp. Windchill Dew Point Humidity Pressure Visibility Wind Dir Wind Speed Gust Speed Precip Events Conditions
12:53 AM 45.0 °F - 28.0 °F 52% 29.94 in 10.0 mi Calm Calm - N/A   Clear
1:53 AM 42.1 °F - 27.0 °F 55% 29.96 in 10.0 mi Calm Calm - N/A   Clear
2:53 AM 41.0 °F - 26.1 °F 55% 29.96 in 10.0 mi Calm Calm - N/A   Clear
3:53 AM 41.0 °F - 27.0 °F 57% 29.98 in 10.0 mi Calm Calm - N/A   Clear
4:53 AM 39.9 °F - 27.0 °F 60% 29.98 in 10.0 mi Calm Calm - N/A   Clear
5:53 AM 42.1 °F 40.2 °F 24.1 °F 49% 29.99 in 10.0 mi East 3.5 mph - N/A   Clear
6:53 AM 37.9 °F - 25.0 °F 60% 30.03 in 10.0 mi Calm Calm - N/A   Clear
7:53 AM 39.0 °F 36.8 °F 25.0 °F 57% 30.05 in 10.0 mi East 3.5 mph - N/A   Clear
8:53 AM 46.9 °F - 26.1 °F 44% 30.06 in 10.0 mi Calm Calm - N/A   Clear
9:53 AM 48.9 °F - 24.1 °F 38% 30.06 in 10.0 mi SE 4.6 mph - N/A   Clear
10:53 AM 53.1 °F - 25.0 °F 34% 30.07 in 10.0 mi SSE 8.1 mph - N/A   Clear
11:53 AM 55.0 °F - 23.0 °F 29% 30.06 in 10.0 mi SSE 8.1 mph - N/A   Clear
12:15 PM 57.2 °F - 23.0 °F 27% 30.06 in 10.0 mi South 9.2 mph - N/A   Clear
12:53 PM 55.9 °F - 21.9 °F 27% 30.02 in 10.0 mi SW 3.5 mph - N/A   Clear
1:53 PM 57.0 °F - 19.9 °F 24% 29.99 in 10.0 mi SW 4.6 mph - N/A   Clear
2:53 PM 59.0 °F - 18.0 °F 20% 29.97 in 10.0 mi WSW 5.8 mph - N/A   Clear
3:53 PM 59.0 °F - 18.0 °F 20% 29.96 in 10.0 mi West 5.8 mph - N/A   Clear
4:53 PM 57.9 °F - 18.0 °F 21% 29.96 in 10.0 mi WSW 8.1 mph - N/A   Clear
5:53 PM 57.9 °F - 18.0 °F 21% 29.96 in 10.0 mi Calm Calm - N/A   Clear
6:53 PM 55.9 °F - 19.0 °F 24% 29.96 in 10.0 mi Calm Calm - N/A   Clear
7:53 PM 54.0 °F - 19.9 °F 26% 29.96 in 10.0 mi Calm Calm - N/A   Clear
8:53 PM 54.0 °F - 19.0 °F 25% 29.94 in 10.0 mi ENE 3.5 mph - N/A   Clear
9:53 PM 53.1 °F - 21.0 °F 29% 29.93 in 10.0 mi NE 5.8 mph - N/A   Clear
10:53 PM 52.0 °F - 19.9 °F 28% 29.93 in 10.0 mi Calm Calm - N/A   Clear
11:53 PM 51.1 °F - 21.0 °F 31% 29.91 in 10.0 mi NNE 3.5 mph - N/A   Clear